Location: Newark
(44.2003°N, 3.2583°E)
Time: 17:45:38
(UTC+00:00)

Vanguard 2 Rocket - Visible Passes

Search period start: 23 October 2019 00:00
Search period end: 02 November 2019 00:00
Orbit: 553 x 3327 km, 32.9° (Epoch: 23 October)

Date Brightness Start Highest point End Pass type
(mag) Time Alt. Az. Time Alt. Az. Time Alt. Az.
23 Oct 10.9 05:09:08 10° SSE 05:17:13 17° SE 05:26:48 10° E visible
25 Oct 10.6 05:19:48 10° S 05:29:49 24° SE 05:42:45 10° E visible
26 Oct 10.7 04:23:40 10° SSE 04:30:00 15° SE 04:37:38 10° E visible
27 Oct 10.3 05:31:48 10° SSW 05:42:34 31° SE 05:57:32 10° E visible
28 Oct 10.3 04:34:17 10° S 04:42:38 22° SE 04:53:47 10° E visible
29 Oct 10.5 03:38:55 10° SSE 03:43:10 12° SE 03:48:07 10° ESE visible
29 Oct 10.1 05:44:31 10° SSW 05:55:34 38° SSE 06:11:46 10° E visible
30 Oct 10.0 04:46:21 10° SSW 04:55:27 29° SE 05:08:37 10° E visible
31 Oct 10.0 03:49:11 10° S 03:55:51 19° SE 04:04:46 10° E visible
01 Nov 9.8 04:59:09 10° SSW 05:08:29 36° SSE 05:22:52 10° E visible
